TimeCDT,TemperatureF,Dew PointF,Humidity,Sea Level PressureIn,VisibilityMPH,Wind Direction,Wind SpeedMPH,Gust SpeedMPH,PrecipitationIn,Events,Conditions,WindDirDegrees,DateUTC
12:52 AM,32.0,30.9,96,29.88,1.5,NNW,11.5,-,N/A,,Overcast,340,2013-03-16 05:52:00
1:07 AM,32.0,30.2,93,29.84,2.0,NNW,12.7,-,N/A,,Overcast,340,2013-03-16 06:07:00
1:52 AM,30.9,30.0,96,29.90,1.5,North,17.3,24.2,N/A,,Overcast,350,2013-03-16 06:52:00
2:01 AM,30.2,30.2,100,29.86,3.0,North,16.1,-,N/A,,Overcast,350,2013-03-16 07:01:00
2:21 AM,30.2,28.4,93,29.87,2.5,North,15.0,-,N/A,,Overcast,360,2013-03-16 07:21:00
2:28 AM,30.2,28.4,93,29.87,4.0,North,16.1,-,N/A,,Overcast,360,2013-03-16 07:28:00
2:52 AM,30.9,28.9,92,29.92,3.0,North,15.0,-,N/A,,Overcast,350,2013-03-16 07:52:00
3:36 AM,30.2,28.4,93,29.90,7.0,NNW,19.6,24.2,N/A,,Overcast,340,2013-03-16 08:36:00
3:52 AM,30.0,28.0,92,29.96,7.0,North,18.4,25.3,N/A,,Overcast,350,2013-03-16 08:52:00
4:09 AM,30.2,28.4,93,29.92,7.0,NNW,17.3,24.2,N/A,,Overcast,340,2013-03-16 09:09:00
4:52 AM,28.9,26.1,89,29.99,10.0,NNW,18.4,-,N/A,,Overcast,340,2013-03-16 09:52:00
5:13 AM,28.4,26.6,93,29.96,10.0,NNW,17.3,-,N/A,,Overcast,340,2013-03-16 10:13:00
5:26 AM,28.4,24.8,86,29.97,10.0,NNW,19.6,-,N/A,,Overcast,340,2013-03-16 10:26:00
5:52 AM,28.0,24.1,85,30.03,10.0,NNW,21.9,-,N/A,,Overcast,340,2013-03-16 10:52:00
5:59 AM,28.4,24.8,86,29.98,10.0,NNW,20.7,-,N/A,,Overcast,340,2013-03-16 10:59:00
6:06 AM,28.4,24.8,86,29.99,10.0,NNW,20.7,26.5,N/A,,Overcast,340,2013-03-16 11:06:00
6:52 AM,27.0,23.0,85,30.06,10.0,North,24.2,28.8,N/A,,Overcast,350,2013-03-16 11:52:00
7:33 AM,26.6,21.2,80,30.04,10.0,North,19.6,-,N/A,,Overcast,350,2013-03-16 12:33:00
7:52 AM,26.1,21.9,84,30.11,10.0,NNW,19.6,-,N/A,,Overcast,330,2013-03-16 12:52:00
7:59 AM,24.8,21.2,86,30.06,9.0,NNW,23.0,28.8,N/A,,Overcast,330,2013-03-16 12:59:00
8:52 AM,24.1,21.0,88,30.12,10.0,NNW,19.6,26.5,N/A,,Overcast,340,2013-03-16 13:52:00
9:40 AM,24.8,19.4,80,30.09,10.0,NNW,19.6,-,N/A,,Overcast,340,2013-03-16 14:40:00
9:52 AM,24.1,19.9,84,30.14,10.0,NNW,20.7,-,N/A,,Overcast,340,2013-03-16 14:52:00
10:07 AM,24.8,19.4,80,30.10,9.0,NNW,17.3,23.0,N/A,,Overcast,340,2013-03-16 15:07:00
10:14 AM,23.0,19.4,86,30.10,10.0,NNW,17.3,-,N/A,,Overcast,340,2013-03-16 15:14:00
10:23 AM,23.0,19.4,86,30.10,10.0,North,17.3,24.2,N/A,,Overcast,350,2013-03-16 15:23:00
10:52 AM,23.0,18.0,81,30.15,10.0,North,17.3,-,N/A,,Overcast,360,2013-03-16 15:52:00
11:52 AM,23.0,18.0,81,30.16,10.0,North,19.6,-,N/A,,Overcast,360,2013-03-16 16:52:00
12:52 PM,21.9,16.0,78,30.19,10.0,North,15.0,-,N/A,,Overcast,350,2013-03-16 17:52:00
1:52 PM,23.0,17.1,78,30.18,10.0,North,12.7,-,N/A,,Overcast,360,2013-03-16 18:52:00
2:52 PM,24.1,17.1,75,30.15,10.0,North,15.0,-,N/A,,Overcast,360,2013-03-16 19:52:00
3:05 PM,24.8,17.6,74,30.09,10.0,North,17.3,-,N/A,,Overcast,360,2013-03-16 20:05:00
3:52 PM,23.0,16.0,74,30.16,10.0,North,12.7,-,N/A,,Overcast,350,2013-03-16 20:52:00
4:52 PM,23.0,16.0,74,30.17,10.0,North,13.8,-,N/A,,Overcast,360,2013-03-16 21:52:00
5:52 PM,23.0,16.0,74,30.18,10.0,NNW,12.7,18.4,N/A,,Mostly Cloudy,340,2013-03-16 22:52:00
6:21 PM,21.2,15.8,80,30.13,10.0,NNW,15.0,-,N/A,,Partly Cloudy,340,2013-03-16 23:21:00
6:52 PM,21.9,15.1,75,30.17,10.0,North,13.8,-,N/A,,Mostly Cloudy,350,2013-03-16 23:52:00
7:52 PM,21.0,14.0,74,30.20,10.0,North,13.8,-,N/A,,Mostly Cloudy,360,2013-03-17 00:52:00
8:52 PM,19.0,12.0,74,30.23,10.0,North,17.3,-,N/A,,Mostly Cloudy,360,2013-03-17 01:52:00
9:02 PM,19.4,12.2,74,30.17,10.0,North,16.1,-,N/A,,Scattered Clouds,360,2013-03-17 02:02:00
9:52 PM,18.0,10.9,74,30.27,10.0,NNW,11.5,-,N/A,,Clear,340,2013-03-17 02:52:00
10:52 PM,18.0,10.9,74,30.27,10.0,North,13.8,-,N/A,,Clear,350,2013-03-17 03:52:00
11:52 PM,17.1,10.0,74,30.27,10.0,North,11.5,-,N/A,,Clear,350,2013-03-17 04:52:00